Location: La Pernelle
(49.6188°N, 1.2999°W)
Time: 09:15:18
(UTC+00:00)

Cosmos 2221 Rocket - Pass Details

Date: 12 June 2021
Orbit: 621 x 647 km, 82.5° (Epoch: 01 August)

Event Time Altitude Azimuth Distance (km) Brightness Sun altitude
Rises 21:03:25 0° 201° (SSW) 2,924 6.7 -6.8°
Reaches altitude 10° 21:05:42 10° 207° (SSW) 2,016 6.0 -7.0°
Maximum altitude 21:10:04 52° 284° (WNW) 787 4.5 -7.5°
Drops below altitude 10° 21:14:26 10° 1° (N) 2,017 7.0 -7.9°
Sets 21:16:44 0° 7° (N) 2,925 7.8 -8.1°
